Multibeam Report for CNTL03RR


Ship Name: Roger Revelle
Chief Scientist: Macdonald, Ken
University of California, Santa Barbara
Source Organization: University of California, Scripps Institution of Oceanography (UC/SIO)
Start Date: 2003-01-07
End Date: 2003-01-12


View ISO Metadata

Visit the full NCEI Bathymetry Viewer


Multibeam Bathymetry

Cruise Details

Project: Centennial Expedition
Instrument: Simrad EM120

Data Quality

Number of Files: 215
Number of Records: 34329
BATHYMETRY DATA Quantity Percentage
Number of Beams 6556839 100%
Number of Good Beams 6364806 97.07%
Number of Zero Beams 192033 2.93%
Number of Flagged Beams 0 0%

Navigation Totals

Total Time: 99.6264 hours
Total Track Length: 1438.2265 km
Average Speed: 14.436 km/hr (7.7948 knots)

Cruise Bounds

Northern Extent: 32.54068
Southern Extent: 31.215006
Western Extent: -118.267525
Eastern Extent: -117.17639

Limits

Minimum Sonar Depth 2.79 Maximum Sonar Depth 7.77
Minimum Altitude 97.36 Maximum Altitude 2162.78
Minimum Depth 85.5 Maximum Depth 2520.5

File Information

Full Resolution Bathymetry as collected (raw): 106

Files File Size Description
0002_20030108_040041p.mb57.gz 8.93MB Simrad multibeam processing format
0003_20030108_045009p.mb57.gz 8.41MB Simrad multibeam processing format
0004_20030108_055009p.mb57.gz 7.35MB Simrad multibeam processing format
0005_20030108_065009p.mb57.gz 6.90MB Simrad multibeam processing format
0007_20030108_074736p.mb57.gz 8.23MB Simrad multibeam processing format
0008_20030108_084736p.mb57.gz 8.05MB Simrad multibeam processing format
0009_20030108_094736p.mb57.gz 8.15MB Simrad multibeam processing format
0010_20030108_104736p.mb57.gz 7.66MB Simrad multibeam processing format
0011_20030108_114736p.mb57.gz 7.36MB Simrad multibeam processing format
0012_20030108_124736p.mb57.gz 7.83MB Simrad multibeam processing format
0013_20030108_134737p.mb57.gz 7.60MB Simrad multibeam processing format
0014_20030108_144737p.mb57.gz 7.78MB Simrad multibeam processing format
0015_20030108_154737p.mb57.gz 7.66MB Simrad multibeam processing format
0016_20030108_164737p.mb57.gz 7.47MB Simrad multibeam processing format
0017_20030108_174737p.mb57.gz 7.71MB Simrad multibeam processing format
0018_20030108_184737p.mb57.gz 7.57MB Simrad multibeam processing format
0019_20030108_194737p.mb57.gz 7.92MB Simrad multibeam processing format
0020_20030108_204737p.mb57.gz 8.27MB Simrad multibeam processing format
0021_20030108_214737p.mb57.gz 7.03MB Simrad multibeam processing format
0022_20030108_224737p.mb57.gz 7.50MB Simrad multibeam processing format
0023_20030108_234737p.mb57.gz 7.79MB Simrad multibeam processing format
0024_20030109_004737p.mb57.gz 7.92MB Simrad multibeam processing format
0025_20030109_014737p.mb57.gz 8.03MB Simrad multibeam processing format
0026_20030109_024737p.mb57.gz 8.09MB Simrad multibeam processing format
0027_20030109_034737p.mb57.gz 6.56MB Simrad multibeam processing format
0028_20030109_043733p.mb57.gz 7.52MB Simrad multibeam processing format
0029_20030109_085812p.mb57.gz 7.57MB Simrad multibeam processing format
0030_20030109_095812p.mb57.gz 7.26MB Simrad multibeam processing format
0031_20030109_105812p.mb57.gz 7.42MB Simrad multibeam processing format
0032_20030109_115813p.mb57.gz 9.05MB Simrad multibeam processing format
0033_20030109_125813p.mb57.gz 7.14MB Simrad multibeam processing format
0034_20030109_135813p.mb57.gz 9.43MB Simrad multibeam processing format
0035_20030109_145813p.mb57.gz 8.23MB Simrad multibeam processing format
0036_20030109_155813p.mb57.gz 7.49MB Simrad multibeam processing format
0037_20030109_165813p.mb57.gz 6.99MB Simrad multibeam processing format
0038_20030109_175813p.mb57.gz 6.91MB Simrad multibeam processing format
0039_20030109_185813p.mb57.gz 7.59MB Simrad multibeam processing format
0040_20030109_195813p.mb57.gz 7.42MB Simrad multibeam processing format
0041_20030109_205813p.mb57.gz 7.50MB Simrad multibeam processing format
0042_20030109_215813p.mb57.gz 7.50MB Simrad multibeam processing format
0043_20030109_225813p.mb57.gz 8.00MB Simrad multibeam processing format
0044_20030109_235813p.mb57.gz 8.82MB Simrad multibeam processing format
0045_20030110_005813p.mb57.gz 10.81MB Simrad multibeam processing format
0046_20030110_015813p.mb57.gz 9.79MB Simrad multibeam processing format
0047_20030110_025814p.mb57.gz 9.94MB Simrad multibeam processing format
0048_20030110_035814p.mb57.gz 8.20MB Simrad multibeam processing format
0049_20030110_045814p.mb57.gz 1.41MB Simrad multibeam processing format
0050_20030110_051004p.mb57.gz 6.96MB Simrad multibeam processing format
0051_20030110_061004p.mb57.gz 6.62MB Simrad multibeam processing format
0052_20030110_071004p.mb57.gz 7.79MB Simrad multibeam processing format
0053_20030110_081004p.mb57.gz 7.87MB Simrad multibeam processing format
0054_20030110_091004p.mb57.gz 7.07MB Simrad multibeam processing format
0055_20030110_101004p.mb57.gz 8.44MB Simrad multibeam processing format
0056_20030110_111004p.mb57.gz 7.90MB Simrad multibeam processing format
0057_20030110_121004p.mb57.gz 6.65MB Simrad multibeam processing format
0058_20030110_131004p.mb57.gz 7.08MB Simrad multibeam processing format
0059_20030110_141004p.mb57.gz 7.86MB Simrad multibeam processing format
0060_20030110_151004p.mb57.gz 8.38MB Simrad multibeam processing format
0061_20030110_161005p.mb57.gz 9.49MB Simrad multibeam processing format
0062_20030110_171005p.mb57.gz 9.37MB Simrad multibeam processing format
0063_20030110_181005p.mb57.gz 8.10MB Simrad multibeam processing format
0064_20030110_191005p.mb57.gz 7.24MB Simrad multibeam processing format
0065_20030110_201005p.mb57.gz 8.10MB Simrad multibeam processing format
0066_20030110_211005p.mb57.gz 9.53MB Simrad multibeam processing format
0067_20030110_221005p.mb57.gz 7.38MB Simrad multibeam processing format
0068_20030110_231005p.mb57.gz 7.71MB Simrad multibeam processing format
0069_20030111_001005p.mb57.gz 7.99MB Simrad multibeam processing format
0070_20030111_011005p.mb57.gz 9.67MB Simrad multibeam processing format
0071_20030111_021005p.mb57.gz 7.79MB Simrad multibeam processing format
0072_20030111_031005p.mb57.gz 6.91MB Simrad multibeam processing format
0073_20030111_041005p.mb57.gz 7.69MB Simrad multibeam processing format
0076_20030111_090632p.mb57.gz 2.30MB Simrad multibeam processing format
0077_20030111_092309p.mb57.gz 7.02MB Simrad multibeam processing format
0078_20030111_102309p.mb57.gz 1.45MB Simrad multibeam processing format
0079_20030111_124727p.mb57.gz 7.13MB Simrad multibeam processing format
0080_20030111_134727p.mb57.gz 3.37MB Simrad multibeam processing format
0081_20030111_141732p.mb57.gz 8.02MB Simrad multibeam processing format
0082_20030111_151732p.mb57.gz 7.78MB Simrad multibeam processing format
0083_20030111_161732p.mb57.gz 7.67MB Simrad multibeam processing format
0084_20030111_171733p.mb57.gz 8.53MB Simrad multibeam processing format
0085_20030111_181733p.mb57.gz 8.10MB Simrad multibeam processing format
0086_20030111_191733p.mb57.gz 7.96MB Simrad multibeam processing format
0087_20030111_201733p.mb57.gz 3.12MB Simrad multibeam processing format
0088_20030111_204657p.mb57.gz 8.03MB Simrad multibeam processing format
0089_20030111_214657p.mb57.gz 7.83MB Simrad multibeam processing format
0090_20030111_224657p.mb57.gz 7.86MB Simrad multibeam processing format
0091_20030111_234657p.mb57.gz 7.88MB Simrad multibeam processing format
0092_20030112_004657p.mb57.gz 7.79MB Simrad multibeam processing format
0093_20030112_014657p.mb57.gz 7.35MB Simrad multibeam processing format
0094_20030112_024657p.mb57.gz 7.62MB Simrad multibeam processing format
0095_20030112_034657p.mb57.gz 7.36MB Simrad multibeam processing format
0096_20030112_044657p.mb57.gz 1.46MB Simrad multibeam processing format
0097_20030112_045917p.mb57.gz 7.03MB Simrad multibeam processing format
0098_20030112_055917p.mb57.gz 6.81MB Simrad multibeam processing format
0099_20030112_065917p.mb57.gz 7.14MB Simrad multibeam processing format
0100_20030112_075917p.mb57.gz 7.30MB Simrad multibeam processing format
0101_20030112_085917p.mb57.gz 7.19MB Simrad multibeam processing format
0102_20030112_095917p.mb57.gz 7.40MB Simrad multibeam processing format
0103_20030112_105918p.mb57.gz 7.02MB Simrad multibeam processing format
0104_20030112_115918p.mb57.gz 7.00MB Simrad multibeam processing format
0105_20030112_125918p.mb57.gz 7.16MB Simrad multibeam processing format
0106_20030112_135918p.mb57.gz 4.32MB Simrad multibeam processing format
0109_20030112_152956p.mb57.gz 7.17MB Simrad multibeam processing format
0110_20030112_162956p.mb57.gz 7.77MB Simrad multibeam processing format
0111_20030112_172956p.mb57.gz 8.23MB Simrad multibeam processing format
0112_20030112_182956p.mb57.gz 2.15MB Simrad multibeam processing format

Full Resolution Bathymetry (processed): 1

Files File Size Description
CNTL03R_fuledit.b93.mb164.gz 84.91MB NGDC binary hydrographic sounding format

Metadata Files: 108

Files File Size Description
CNTL03RR_Multibeam.xml NGDC created ISO metadata
0002_20030108_040041p.mb57.mif 14.5KB Metadata I?? File for each individual data file
0003_20030108_045009p.mb57.mif 14.5KB Metadata I?? File for each individual data file
0004_20030108_055009p.mb57.mif 14.5KB Metadata I?? File for each individual data file
0005_20030108_065009p.mb57.mif 14.5KB Metadata I?? File for each individual data file
0007_20030108_074736p.mb57.mif 14.5KB Metadata I?? File for each individual data file
0008_20030108_084736p.mb57.mif 14.5KB Metadata I?? File for each individual data file
0009_20030108_094736p.mb57.mif 14.5KB Metadata I?? File for each individual data file
0010_20030108_104736p.mb57.mif 14.5KB Metadata I?? File for each individual data file
0011_20030108_114736p.mb57.mif 14.5KB Metadata I?? File for each individual data file
0012_20030108_124736p.mb57.mif 14.5KB Metadata I?? File for each individual data file
0013_20030108_134737p.mb57.mif 14.5KB Metadata I?? File for each individual data file
0014_20030108_144737p.mb57.mif 14.5KB Metadata I?? File for each individual data file
0015_20030108_154737p.mb57.mif 14.5KB Metadata I?? File for each individual data file
0016_20030108_164737p.mb57.mif 14.5KB Metadata I?? File for each individual data file
0017_20030108_174737p.mb57.mif 14.5KB Metadata I?? File for each individual data file
0018_20030108_184737p.mb57.mif 14.5KB Metadata I?? File for each individual data file
0019_20030108_194737p.mb57.mif 14.5KB Metadata I?? File for each individual data file
0020_20030108_204737p.mb57.mif 14.5KB Metadata I?? File for each individual data file
0021_20030108_214737p.mb57.mif 14.5KB Metadata I?? File for each individual data file
0022_20030108_224737p.mb57.mif 14.5KB Metadata I?? File for each individual data file
0023_20030108_234737p.mb57.mif 14.5KB Metadata I?? File for each individual data file
0024_20030109_004737p.mb57.mif 14.5KB Metadata I?? File for each individual data file
0025_20030109_014737p.mb57.mif 14.5KB Metadata I?? File for each individual data file
0026_20030109_024737p.mb57.mif 14.5KB Metadata I?? File for each individual data file
0027_20030109_034737p.mb57.mif 14.5KB Metadata I?? File for each individual data file
0028_20030109_043733p.mb57.mif 14.5KB Metadata I?? File for each individual data file
0029_20030109_085812p.mb57.mif 14.5KB Metadata I?? File for each individual data file
0030_20030109_095812p.mb57.mif 14.5KB Metadata I?? File for each individual data file
0031_20030109_105812p.mb57.mif 14.5KB Metadata I?? File for each individual data file
0032_20030109_115813p.mb57.mif 14.5KB Metadata I?? File for each individual data file
0033_20030109_125813p.mb57.mif 14.5KB Metadata I?? File for each individual data file
0034_20030109_135813p.mb57.mif 14.5KB Metadata I?? File for each individual data file
0035_20030109_145813p.mb57.mif 14.5KB Metadata I?? File for each individual data file
0036_20030109_155813p.mb57.mif 14.5KB Metadata I?? File for each individual data file
0037_20030109_165813p.mb57.mif 14.5KB Metadata I?? File for each individual data file
0038_20030109_175813p.mb57.mif 14.5KB Metadata I?? File for each individual data file
0039_20030109_185813p.mb57.mif 14.5KB Metadata I?? File for each individual data file
0040_20030109_195813p.mb57.mif 14.5KB Metadata I?? File for each individual data file
0041_20030109_205813p.mb57.mif 14.5KB Metadata I?? File for each individual data file
0042_20030109_215813p.mb57.mif 14.5KB Metadata I?? File for each individual data file
0043_20030109_225813p.mb57.mif 14.5KB Metadata I?? File for each individual data file
0044_20030109_235813p.mb57.mif 14.5KB Metadata I?? File for each individual data file
0045_20030110_005813p.mb57.mif 14.5KB Metadata I?? File for each individual data file
0046_20030110_015813p.mb57.mif 14.5KB Metadata I?? File for each individual data file
0047_20030110_025814p.mb57.mif 14.5KB Metadata I?? File for each individual data file
0048_20030110_035814p.mb57.mif 14.5KB Metadata I?? File for each individual data file
0049_20030110_045814p.mb57.mif 14.5KB Metadata I?? File for each individual data file
0050_20030110_051004p.mb57.mif 14.5KB Metadata I?? File for each individual data file
0051_20030110_061004p.mb57.mif 14.5KB Metadata I?? File for each individual data file
0052_20030110_071004p.mb57.mif 14.5KB Metadata I?? File for each individual data file
0053_20030110_081004p.mb57.mif 14.5KB Metadata I?? File for each individual data file
0054_20030110_091004p.mb57.mif 14.5KB Metadata I?? File for each individual data file
0055_20030110_101004p.mb57.mif 14.5KB Metadata I?? File for each individual data file
0056_20030110_111004p.mb57.mif 14.5KB Metadata I?? File for each individual data file
0057_20030110_121004p.mb57.mif 14.5KB Metadata I?? File for each individual data file
0058_20030110_131004p.mb57.mif 14.5KB Metadata I?? File for each individual data file
0059_20030110_141004p.mb57.mif 14.5KB Metadata I?? File for each individual data file
0060_20030110_151004p.mb57.mif 14.5KB Metadata I?? File for each individual data file
0061_20030110_161005p.mb57.mif 14.5KB Metadata I?? File for each individual data file
0062_20030110_171005p.mb57.mif 14.5KB Metadata I?? File for each individual data file
0063_20030110_181005p.mb57.mif 14.5KB Metadata I?? File for each individual data file
0064_20030110_191005p.mb57.mif 14.5KB Metadata I?? File for each individual data file
0065_20030110_201005p.mb57.mif 14.5KB Metadata I?? File for each individual data file
0066_20030110_211005p.mb57.mif 14.5KB Metadata I?? File for each individual data file
0067_20030110_221005p.mb57.mif 14.5KB Metadata I?? File for each individual data file
0068_20030110_231005p.mb57.mif 14.5KB Metadata I?? File for each individual data file
0069_20030111_001005p.mb57.mif 14.5KB Metadata I?? File for each individual data file
0070_20030111_011005p.mb57.mif 14.5KB Metadata I?? File for each individual data file
0071_20030111_021005p.mb57.mif 14.5KB Metadata I?? File for each individual data file
0072_20030111_031005p.mb57.mif 14.5KB Metadata I?? File for each individual data file
0073_20030111_041005p.mb57.mif 14.5KB Metadata I?? File for each individual data file
0076_20030111_090632p.mb57.mif 14.5KB Metadata I?? File for each individual data file
0077_20030111_092309p.mb57.mif 14.5KB Metadata I?? File for each individual data file
0078_20030111_102309p.mb57.mif 14.5KB Metadata I?? File for each individual data file
0079_20030111_124727p.mb57.mif 14.5KB Metadata I?? File for each individual data file
0080_20030111_134727p.mb57.mif 14.5KB Metadata I?? File for each individual data file
0081_20030111_141732p.mb57.mif 14.5KB Metadata I?? File for each individual data file
0082_20030111_151732p.mb57.mif 14.5KB Metadata I?? File for each individual data file
0083_20030111_161732p.mb57.mif 14.5KB Metadata I?? File for each individual data file
0084_20030111_171733p.mb57.mif 14.5KB Metadata I?? File for each individual data file
0085_20030111_181733p.mb57.mif 14.5KB Metadata I?? File for each individual data file
0086_20030111_191733p.mb57.mif 14.5KB Metadata I?? File for each individual data file
0087_20030111_201733p.mb57.mif 14.5KB Metadata I?? File for each individual data file
0088_20030111_204657p.mb57.mif 14.5KB Metadata I?? File for each individual data file
0089_20030111_214657p.mb57.mif 14.5KB Metadata I?? File for each individual data file
0090_20030111_224657p.mb57.mif 14.5KB Metadata I?? File for each individual data file
0091_20030111_234657p.mb57.mif 14.5KB Metadata I?? File for each individual data file
0092_20030112_004657p.mb57.mif 14.5KB Metadata I?? File for each individual data file
0093_20030112_014657p.mb57.mif 14.5KB Metadata I?? File for each individual data file
0094_20030112_024657p.mb57.mif 14.5KB Metadata I?? File for each individual data file
0095_20030112_034657p.mb57.mif 14.5KB Metadata I?? File for each individual data file
0096_20030112_044657p.mb57.mif 14.5KB Metadata I?? File for each individual data file
0097_20030112_045917p.mb57.mif 14.5KB Metadata I?? File for each individual data file
0098_20030112_055917p.mb57.mif 14.5KB Metadata I?? File for each individual data file
0099_20030112_065917p.mb57.mif 14.5KB Metadata I?? File for each individual data file
0100_20030112_075917p.mb57.mif 14.5KB Metadata I?? File for each individual data file
0101_20030112_085917p.mb57.mif 14.5KB Metadata I?? File for each individual data file
0102_20030112_095917p.mb57.mif 14.5KB Metadata I?? File for each individual data file
0103_20030112_105918p.mb57.mif 14.5KB Metadata I?? File for each individual data file
0104_20030112_115918p.mb57.mif 14.5KB Metadata I?? File for each individual data file
0105_20030112_125918p.mb57.mif 14.5KB Metadata I?? File for each individual data file
0106_20030112_135918p.mb57.mif 14.5KB Metadata I?? File for each individual data file
0109_20030112_152956p.mb57.mif 14.5KB Metadata I?? File for each individual data file
0110_20030112_162956p.mb57.mif 14.5KB Metadata I?? File for each individual data file
0111_20030112_172956p.mb57.mif 14.5KB Metadata I?? File for each individual data file
0112_20030112_182956p.mb57.mif 14.5KB Metadata I?? File for each individual data file
CNTL03RR.pdf 252.7KB PDF metadata file